owner,sensor,date,latitude,longitude,air_pressure(mBar),qcFlag 
COMPS,ioos:station:USF.COMPS:C13:1,2014-07-01T00:05:00Z,26.0630,-83.0730,1012.65,1111122 
COMPS,ioos:station:USF.COMPS:C13:1,2014-07-01T00:35:00Z,26.0630,-83.0730,1013.06,1111122 
COMPS,ioos:station:USF.COMPS:C13:1,2014-07-01T04:05:00Z,26.0630,-83.0730,1013.22,1111122 
COMPS,ioos:station:USF.COMPS:C13:1,2014-07-01T04:35:00Z,26.0630,-83.0730,1013.11,1111122 
COMPS,ioos:station:USF.COMPS:C13:1,2014-07-01T05:05:00Z,26.0630,-83.0730,1012.91,1111122 
COMPS,ioos:station:USF.COMPS:C13:1,2014-07-01T05:35:00Z,26.0630,-83.0730,1012.27,1111122 
COMPS,ioos:station:USF.COMPS:C13:1,2014-07-01T06:05:00Z,26.0630,-83.0730,1011.92,1111122 
COMPS,ioos:station:USF.COMPS:C13:1,2014-07-01T06:35:00Z,26.0630,-83.0730,1011.4,1111122 
COMPS,ioos:station:USF.COMPS:C13:1,2014-07-01T07:05:00Z,26.0630,-83.0730,1011.16,1111122 
COMPS,ioos:station:USF.COMPS:C13:1,2014-07-01T07:35:00Z,26.0630,-83.0730,1011.09,1111122 
COMPS,ioos:station:USF.COMPS:C13:1,2014-07-01T08:05:00Z,26.0630,-83.0730,1011.21,1111122 
COMPS,ioos:station:USF.COMPS:C13:1,2014-07-01T08:35:00Z,26.0630,-83.0730,1011.14,1111122 
COMPS,ioos:station:USF.COMPS:C13:1,2014-07-01T09:05:00Z,26.0630,-83.0730,1011.21,1111122 
COMPS,ioos:station:USF.COMPS:C13:1,2014-07-01T09:35:00Z,26.0630,-83.0730,1011.25,1111122 
COMPS,ioos:station:USF.COMPS:C13:1,2014-07-01T10:05:00Z,26.0630,-83.0730,1011.29,1111122 
COMPS,ioos:station:USF.COMPS:C13:1,2014-07-01T10:35:00Z,26.0630,-83.0730,1011.14,1111122 
COMPS,ioos:station:USF.COMPS:C13:1,2014-07-01T11:05:00Z,26.0630,-83.0730,1011.6,1111122 
COMPS,ioos:station:USF.COMPS:C13:1,2014-07-01T11:35:00Z,26.0630,-83.0730,1011.76,1111122 
COMPS,ioos:station:USF.COMPS:C13:1,2014-07-01T12:05:00Z,26.0630,-83.0730,1012.23,1111122 
COMPS,ioos:station:USF.COMPS:C13:1,2014-07-01T12:35:00Z,26.0630,-83.0730,1012.34,1111122 
COMPS,ioos:station:USF.COMPS:C13:1,2014-07-01T13:05:00Z,26.0630,-83.0730,1012.32,1111122 
COMPS,ioos:station:USF.COMPS:C13:1,2014-07-01T13:35:00Z,26.0630,-83.0730,1012.27,1111122 
COMPS,ioos:station:USF.COMPS:C13:1,2014-07-01T14:05:00Z,26.0630,-83.0730,1012.7,1111122 
COMPS,ioos:station:USF.COMPS:C13:1,2014-07-01T14:35:00Z,26.0630,-83.0730,1012.45,1111122 
COMPS,ioos:station:USF.COMPS:C13:1,2014-07-01T15:05:00Z,26.0630,-83.0730,1012.59,1111122 
COMPS,ioos:station:USF.COMPS:C13:1,2014-07-01T15:35:00Z,26.0630,-83.0730,1012.31,1111122 
COMPS,ioos:station:USF.COMPS:C13:1,2014-07-01T16:05:00Z,26.0630,-83.0730,1012.6,1111122 
COMPS,ioos:station:USF.COMPS:C13:1,2014-07-01T16:35:00Z,26.0630,-83.0730,1012.69,1111122 
COMPS,ioos:station:USF.COMPS:C13:1,2014-07-01T17:05:00Z,26.0630,-83.0730,1012.65,1111122 
COMPS,ioos:station:USF.COMPS:C13:1,2014-07-01T17:35:00Z,26.0630,-83.0730,1012.42,1111122 
COMPS,ioos:station:USF.COMPS:C13:1,2014-07-01T18:05:00Z,26.0630,-83.0730,1012.3,1111122 
COMPS,ioos:station:USF.COMPS:C13:1,2014-07-01T18:35:00Z,26.0630,-83.0730,1011.88,1111122 
COMPS,ioos:station:USF.COMPS:C13:1,2014-07-01T19:05:00Z,26.0630,-83.0730,1011.82,1111122 
COMPS,ioos:station:USF.COMPS:C13:1,2014-07-01T19:35:00Z,26.0630,-83.0730,1011.65,1111122 
COMPS,ioos:station:USF.COMPS:C13:1,2014-07-01T20:05:00Z,26.0630,-83.0730,1011.68,1111122 
COMPS,ioos:station:USF.COMPS:C13:1,2014-07-01T20:35:00Z,26.0630,-83.0730,1011.42,1111122 
COMPS,ioos:station:USF.COMPS:C13:1,2014-07-01T21:05:00Z,26.0630,-83.0730,1011.07,1111122 
COMPS,ioos:station:USF.COMPS:C13:1,2014-07-01T21:35:00Z,26.0630,-83.0730,1010.59,1111122 
COMPS,ioos:station:USF.COMPS:C13:1,2014-07-01T22:05:00Z,26.0630,-83.0730,1010.74,1111122 
COMPS,ioos:station:USF.COMPS:C13:1,2014-07-01T22:35:00Z,26.0630,-83.0730,1010.8,1111122 
COMPS,ioos:station:USF.COMPS:C13:1,2014-07-01T23:05:00Z,26.0630,-83.0730,1010.57,1111122 
COMPS,ioos:station:USF.COMPS:C13:1,2014-07-01T23:35:00Z,26.0630,-83.0730,1010.59,1111122 
COMPS,ioos:station:USF.COMPS:C13:1,2014-07-02T00:05:00Z,26.0630,-83.0730,1010.85,1111122 
COMPS,ioos:station:USF.COMPS:C13:1,2014-07-02T00:35:00Z,26.0630,-83.0730,1011.07,1111122 
COMPS,ioos:station:USF.COMPS:C13:1,2014-07-02T01:05:00Z,26.0630,-83.0730,1011.07,1111122 
COMPS,ioos:station:USF.COMPS:C13:1,2014-07-02T01:35:00Z,26.0630,-83.0730,1011.24,1111122 
COMPS,ioos:station:USF.COMPS:C13:1,2014-07-02T02:05:00Z,26.0630,-83.0730,1011.25,1111122 
COMPS,ioos:station:USF.COMPS:C13:1,2014-07-02T02:35:00Z,26.0630,-83.0730,1011.28,1111122 
COMPS,ioos:station:USF.COMPS:C13:1,2014-07-02T03:05:00Z,26.0630,-83.0730,1011.36,1111122 
COMPS,ioos:station:USF.COMPS:C13:1,2014-07-02T03:35:00Z,26.0630,-83.0730,1011.42,1111122 
COMPS,ioos:station:USF.COMPS:C13:1,2014-07-02T05:05:00Z,26.0630,-83.0730,1011.76,1111122 
COMPS,ioos:station:USF.COMPS:C13:1,2014-07-02T05:35:00Z,26.0630,-83.0730,1011.41,1111122 
COMPS,ioos:station:USF.COMPS:C13:1,2014-07-02T06:05:00Z,26.0630,-83.0730,1010.88,1111122 
COMPS,ioos:station:USF.COMPS:C13:1,2014-07-02T06:35:00Z,26.0630,-83.0730,1011.11,1111122 
COMPS,ioos:station:USF.COMPS:C13:1,2014-07-02T07:05:00Z,26.0630,-83.0730,1011.07,1111122 
COMPS,ioos:station:USF.COMPS:C13:1,2014-07-02T07:35:00Z,26.0630,-83.0730,1010.61,1111122 
COMPS,ioos:station:USF.COMPS:C13:1,2014-07-02T08:05:00Z,26.0630,-83.0730,1010.5,1111122 
COMPS,ioos:station:USF.COMPS:C13:1,2014-07-02T08:35:00Z,26.0630,-83.0730,1010.63,1111122 
COMPS,ioos:station:USF.COMPS:C13:1,2014-07-02T11:05:00Z,26.0630,-83.0730,1011.35,1111122 
COMPS,ioos:station:USF.COMPS:C13:1,2014-07-02T11:35:00Z,26.0630,-83.0730,1011.39,1111122 
COMPS,ioos:station:USF.COMPS:C13:1,2014-07-02T12:05:00Z,26.0630,-83.0730,1011.73,1111122 
COMPS,ioos:station:USF.COMPS:C13:1,2014-07-02T12:35:00Z,26.0630,-83.0730,1012.07,1111122 
COMPS,ioos:station:USF.COMPS:C13:1,2014-07-02T13:05:00Z,26.0630,-83.0730,1012.43,1111122 
COMPS,ioos:station:USF.COMPS:C13:1,2014-07-02T13:35:00Z,26.0630,-83.0730,1012.64,1111122 
COMPS,ioos:station:USF.COMPS:C13:1,2014-07-02T14:05:00Z,26.0630,-83.0730,1012.73,1111122 
COMPS,ioos:station:USF.COMPS:C13:1,2014-07-02T14:35:00Z,26.0630,-83.0730,1012.61,1111122 
COMPS,ioos:station:USF.COMPS:C13:1,2014-07-02T15:05:00Z,26.0630,-83.0730,1012.69,1111122 
COMPS,ioos:station:USF.COMPS:C13:1,2014-07-02T15:35:00Z,26.0630,-83.0730,1012.9,1111122 
COMPS,ioos:station:USF.COMPS:C13:1,2014-07-02T16:05:00Z,26.0630,-83.0730,1013.07,1111122 
COMPS,ioos:station:USF.COMPS:C13:1,2014-07-02T16:35:00Z,26.0630,-83.0730,1013.19,1111122 
COMPS,ioos:station:USF.COMPS:C13:1,2014-07-02T17:05:00Z,26.0630,-83.0730,1013.11,1111122 
COMPS,ioos:station:USF.COMPS:C13:1,2014-07-02T17:35:00Z,26.0630,-83.0730,1013.18,1111122 
COMPS,ioos:station:USF.COMPS:C13:1,2014-07-02T18:05:00Z,26.0630,-83.0730,1012.99,1111122 
COMPS,ioos:station:USF.COMPS:C13:1,2014-07-02T18:35:00Z,26.0630,-83.0730,1012.84,1111122 
COMPS,ioos:station:USF.COMPS:C13:1,2014-07-02T19:05:00Z,26.0630,-83.0730,1012.64,1111122 
COMPS,ioos:station:USF.COMPS:C13:1,2014-07-02T19:35:00Z,26.0630,-83.0730,1012.72,1111122 
COMPS,ioos:station:USF.COMPS:C13:1,2014-07-02T20:05:00Z,26.0630,-83.0730,1012.71,1111122 
COMPS,ioos:station:USF.COMPS:C13:1,2014-07-02T20:35:00Z,26.0630,-83.0730,1012.75,1111122 
COMPS,ioos:station:USF.COMPS:C13:1,2014-07-02T21:05:00Z,26.0630,-83.0730,1012.75,1111122 
COMPS,ioos:station:USF.COMPS:C13:1,2014-07-02T21:35:00Z,26.0630,-83.0730,1012.68,1111122 
COMPS,ioos:station:USF.COMPS:C13:1,2014-07-02T22:05:00Z,26.0630,-83.0730,1012.19,1111122 
COMPS,ioos:station:USF.COMPS:C13:1,2014-07-02T22:35:00Z,26.0630,-83.0730,1012.11,1111122 
COMPS,ioos:station:USF.COMPS:C13:1,2014-07-02T23:05:00Z,26.0630,-83.0730,1012.05,1111122 
COMPS,ioos:station:USF.COMPS:C13:1,2014-07-02T23:35:00Z,26.0630,-83.0730,1011.9,1111122 
COMPS,ioos:station:USF.COMPS:C13:1,2014-07-03T00:05:00Z,26.0630,-83.0730,1011.88,1111122 
COMPS,ioos:station:USF.COMPS:C13:1,2014-07-03T00:35:00Z,26.0630,-83.0730,1012.32,1111122 
COMPS,ioos:station:USF.COMPS:C13:1,2014-07-03T01:05:00Z,26.0630,-83.0730,1012.76,1111122 
COMPS,ioos:station:USF.COMPS:C13:1,2014-07-03T01:35:00Z,26.0630,-83.0730,1012.98,1111122 
COMPS,ioos:station:USF.COMPS:C13:1,2014-07-03T02:05:00Z,26.0630,-83.0730,1013.17,1111122 
COMPS,ioos:station:USF.COMPS:C13:1,2014-07-03T02:35:00Z,26.0630,-83.0730,1013.19,1111122 
COMPS,ioos:station:USF.COMPS:C13:1,2014-07-03T04:05:00Z,26.0630,-83.0730,1013.96,1111122 
COMPS,ioos:station:USF.COMPS:C13:1,2014-07-03T04:35:00Z,26.0630,-83.0730,1013.73,1111122 
COMPS,ioos:station:USF.COMPS:C13:1,2014-07-03T05:05:00Z,26.0630,-83.0730,1013.56,1111122 
COMPS,ioos:station:USF.COMPS:C13:1,2014-07-03T05:35:00Z,26.0630,-83.0730,1013.43,1111122 
COMPS,ioos:station:USF.COMPS:C13:1,2014-07-03T06:05:00Z,26.0630,-83.0730,1013.55,1111122 
COMPS,ioos:station:USF.COMPS:C13:1,2014-07-03T06:35:00Z,26.0630,-83.0730,1013.77,1111122 
COMPS,ioos:station:USF.COMPS:C13:1,2014-07-03T07:05:00Z,26.0630,-83.0730,1013.82,1111122 
COMPS,ioos:station:USF.COMPS:C13:1,2014-07-03T07:35:00Z,26.0630,-83.0730,1013.86,1111122 
COMPS,ioos:station:USF.COMPS:C13:1,2014-07-03T08:05:00Z,26.0630,-83.0730,1013.56,1111122 
COMPS,ioos:station:USF.COMPS:C13:1,2014-07-03T08:35:00Z,26.0630,-83.0730,1013.55,1111122 
COMPS,ioos:station:USF.COMPS:C13:1,2014-07-03T09:05:00Z,26.0630,-83.0730,1013.79,1111122 
COMPS,ioos:station:USF.COMPS:C13:1,2014-07-03T09:35:00Z,26.0630,-83.0730,1014.22,1111122 
COMPS,ioos:station:USF.COMPS:C13:1,2014-07-03T10:05:00Z,26.0630,-83.0730,1014.23,1111122 
COMPS,ioos:station:USF.COMPS:C13:1,2014-07-03T10:35:00Z,26.0630,-83.0730,1014.31,1111122 
COMPS,ioos:station:USF.COMPS:C13:1,2014-07-03T11:05:00Z,26.0630,-83.0730,1014.56,1111122 
COMPS,ioos:station:USF.COMPS:C13:1,2014-07-03T11:35:00Z,26.0630,-83.0730,1014.9,1111122 
COMPS,ioos:station:USF.COMPS:C13:1,2014-07-03T12:05:00Z,26.0630,-83.0730,1014.99,1111122 
COMPS,ioos:station:USF.COMPS:C13:1,2014-07-03T12:35:00Z,26.0630,-83.0730,1015.33,1111122 
COMPS,ioos:station:USF.COMPS:C13:1,2014-07-03T13:05:00Z,26.0630,-83.0730,1015.68,1111122 
COMPS,ioos:station:USF.COMPS:C13:1,2014-07-03T13:35:00Z,26.0630,-83.0730,1015.86,1111122 
COMPS,ioos:station:USF.COMPS:C13:1,2014-07-03T14:05:00Z,26.0630,-83.0730,1015.85,1111122 
COMPS,ioos:station:USF.COMPS:C13:1,2014-07-03T14:35:00Z,26.0630,-83.0730,1015.76,1111122 
COMPS,ioos:station:USF.COMPS:C13:1,2014-07-03T15:05:00Z,26.0630,-83.0730,1015.89,1111122 
COMPS,ioos:station:USF.COMPS:C13:1,2014-07-03T15:35:00Z,26.0630,-83.0730,1016.34,1111122 
COMPS,ioos:station:USF.COMPS:C13:1,2014-07-03T16:05:00Z,26.0630,-83.0730,1016.2,1111122 
COMPS,ioos:station:USF.COMPS:C13:1,2014-07-03T16:35:00Z,26.0630,-83.0730,1016.58,1111122 
COMPS,ioos:station:USF.COMPS:C13:1,2014-07-03T17:05:00Z,26.0630,-83.0730,1016.45,1111122 
COMPS,ioos:station:USF.COMPS:C13:1,2014-07-03T17:35:00Z,26.0630,-83.0730,1016.41,1111122 
COMPS,ioos:station:USF.COMPS:C13:1,2014-07-03T18:05:00Z,26.0630,-83.0730,1016.16,1111122 
COMPS,ioos:station:USF.COMPS:C13:1,2014-07-03T18:35:00Z,26.0630,-83.0730,1016.15,1111122 
COMPS,ioos:station:USF.COMPS:C13:1,2014-07-03T19:05:00Z,26.0630,-83.0730,1015.94,1111122 
COMPS,ioos:station:USF.COMPS:C13:1,2014-07-03T19:35:00Z,26.0630,-83.0730,1015.65,1111122 
COMPS,ioos:station:USF.COMPS:C13:1,2014-07-03T20:05:00Z,26.0630,-83.0730,1015.63,1111122 
COMPS,ioos:station:USF.COMPS:C13:1,2014-07-03T20:35:00Z,26.0630,-83.0730,1015.54,1111122 
COMPS,ioos:station:USF.COMPS:C13:1,2014-07-03T21:05:00Z,26.0630,-83.0730,1015.13,1111122 
COMPS,ioos:station:USF.COMPS:C13:1,2014-07-03T21:35:00Z,26.0630,-83.0730,1014.84,1111122 
COMPS,ioos:station:USF.COMPS:C13:1,2014-07-03T22:05:00Z,26.0630,-83.0730,1014.8,1111122 
COMPS,ioos:station:USF.COMPS:C13:1,2014-07-03T22:35:00Z,26.0630,-83.0730,1014.67,1111122 
COMPS,ioos:station:USF.COMPS:C13:1,2014-07-03T23:05:00Z,26.0630,-83.0730,1014.91,1111122 
COMPS,ioos:station:USF.COMPS:C13:1,2014-07-03T23:35:00Z,26.0630,-83.0730,1015.13,1111122 
COMPS,ioos:station:USF.COMPS:C13:1,2014-07-04T00:05:00Z,26.0630,-83.0730,1015.14,1111122 
COMPS,ioos:station:USF.COMPS:C13:1,2014-07-04T00:35:00Z,26.0630,-83.0730,1015.54,1111122 
COMPS,ioos:station:USF.COMPS:C13:1,2014-07-04T01:05:00Z,26.0630,-83.0730,1015.87,1111122 
COMPS,ioos:station:USF.COMPS:C13:1,2014-07-04T01:35:00Z,26.0630,-83.0730,1016.42,1111122 
COMPS,ioos:station:USF.COMPS:C13:1,2014-07-04T02:05:00Z,26.0630,-83.0730,1016.93,1111122 
COMPS,ioos:station:USF.COMPS:C13:1,2014-07-04T02:35:00Z,26.0630,-83.0730,1017.01,1111122 
COMPS,ioos:station:USF.COMPS:C13:1,2014-07-04T03:05:00Z,26.0630,-83.0730,1017.36,1111122 
COMPS,ioos:station:USF.COMPS:C13:1,2014-07-04T03:35:00Z,26.0630,-83.0730,1017.53,1111122 
COMPS,ioos:station:USF.COMPS:C13:1,2014-07-04T04:05:00Z,26.0630,-83.0730,1017.49,1111122 
COMPS,ioos:station:USF.COMPS:C13:1,2014-07-04T04:35:00Z,26.0630,-83.0730,1017.35,1111122 
COMPS,ioos:station:USF.COMPS:C13:1,2014-07-04T05:05:00Z,26.0630,-83.0730,1017.43,1111122 
COMPS,ioos:station:USF.COMPS:C13:1,2014-07-04T05:35:00Z,26.0630,-83.0730,1017.28,1111122 
COMPS,ioos:station:USF.COMPS:C13:1,2014-07-04T06:05:00Z,26.0630,-83.0730,1017.26,1111122 
COMPS,ioos:station:USF.COMPS:C13:1,2014-07-04T06:35:00Z,26.0630,-83.0730,1017.16,1111122 
COMPS,ioos:station:USF.COMPS:C13:1,2014-07-04T07:05:00Z,26.0630,-83.0730,1016.8,1111122 
COMPS,ioos:station:USF.COMPS:C13:1,2014-07-04T07:35:00Z,26.0630,-83.0730,1016.47,1111122 
COMPS,ioos:station:USF.COMPS:C13:1,2014-07-04T08:05:00Z,26.0630,-83.0730,1016.43,1111122 
COMPS,ioos:station:USF.COMPS:C13:1,2014-07-04T08:35:00Z,26.0630,-83.0730,1016.27,1111122 
COMPS,ioos:station:USF.COMPS:C13:1,2014-07-04T09:05:00Z,26.0630,-83.0730,1016.52,1111122 
COMPS,ioos:station:USF.COMPS:C13:1,2014-07-04T09:35:00Z,26.0630,-83.0730,1016.57,1111122 
COMPS,ioos:station:USF.COMPS:C13:1,2014-07-04T10:05:00Z,26.0630,-83.0730,1016.82,1111122 
COMPS,ioos:station:USF.COMPS:C13:1,2014-07-04T10:35:00Z,26.0630,-83.0730,1017.04,1111122 
COMPS,ioos:station:USF.COMPS:C13:1,2014-07-04T11:05:00Z,26.0630,-83.0730,1017.06,1111122 
COMPS,ioos:station:USF.COMPS:C13:1,2014-07-04T11:35:00Z,26.0630,-83.0730,1017.08,1111122 
COMPS,ioos:station:USF.COMPS:C13:1,2014-07-04T12:05:00Z,26.0630,-83.0730,1017.36,1111122 
COMPS,ioos:station:USF.COMPS:C13:1,2014-07-04T12:35:00Z,26.0630,-83.0730,1017.7,1111122 
COMPS,ioos:station:USF.COMPS:C13:1,2014-07-04T13:05:00Z,26.0630,-83.0730,1018.0,1111122 
COMPS,ioos:station:USF.COMPS:C13:1,2014-07-04T13:35:00Z,26.0630,-83.0730,1018.01,1111122 
COMPS,ioos:station:USF.COMPS:C13:1,2014-07-04T14:05:00Z,26.0630,-83.0730,1018.21,1111122 
COMPS,ioos:station:USF.COMPS:C13:1,2014-07-04T14:35:00Z,26.0630,-83.0730,1018.3,1111122 
COMPS,ioos:station:USF.COMPS:C13:1,2014-07-04T15:05:00Z,26.0630,-83.0730,1018.54,1111122 
COMPS,ioos:station:USF.COMPS:C13:1,2014-07-04T15:35:00Z,26.0630,-83.0730,1018.54,1111122 
COMPS,ioos:station:USF.COMPS:C13:1,2014-07-04T16:05:00Z,26.0630,-83.0730,1018.81,1111122 
COMPS,ioos:station:USF.COMPS:C13:1,2014-07-04T16:35:00Z,26.0630,-83.0730,1019.0,1111122 
COMPS,ioos:station:USF.COMPS:C13:1,2014-07-04T17:05:00Z,26.0630,-83.0730,1018.59,1111122 
COMPS,ioos:station:USF.COMPS:C13:1,2014-07-04T17:35:00Z,26.0630,-83.0730,1018.47,1111122 
COMPS,ioos:station:USF.COMPS:C13:1,2014-07-04T18:05:00Z,26.0630,-83.0730,1018.21,1111122 
COMPS,ioos:station:USF.COMPS:C13:1,2014-07-04T18:35:00Z,26.0630,-83.0730,1018.04,1111122 
COMPS,ioos:station:USF.COMPS:C13:1,2014-07-04T19:05:00Z,26.0630,-83.0730,1017.58,1111122 
COMPS,ioos:station:USF.COMPS:C13:1,2014-07-04T19:35:00Z,26.0630,-83.0730,1017.34,1111122 
COMPS,ioos:station:USF.COMPS:C13:1,2014-07-04T21:05:00Z,26.0630,-83.0730,1016.38,1111122 
COMPS,ioos:station:USF.COMPS:C13:1,2014-07-04T21:35:00Z,26.0630,-83.0730,1016.27,1111122 
COMPS,ioos:station:USF.COMPS:C13:1,2014-07-04T22:05:00Z,26.0630,-83.0730,1016.48,1111122 
COMPS,ioos:station:USF.COMPS:C13:1,2014-07-04T22:35:00Z,26.0630,-83.0730,1016.83,1111122 
COMPS,ioos:station:USF.COMPS:C13:1,2014-07-04T23:05:00Z,26.0630,-83.0730,1017.02,1111122 
COMPS,ioos:station:USF.COMPS:C13:1,2014-07-04T23:35:00Z,26.0630,-83.0730,1017.32,1111122 
COMPS,ioos:station:USF.COMPS:C13:1,2014-07-05T00:05:00Z,26.0630,-83.0730,1017.32,1111122 
COMPS,ioos:station:USF.COMPS:C13:1,2014-07-05T00:35:00Z,26.0630,-83.0730,1017.36,1111122 
COMPS,ioos:station:USF.COMPS:C13:1,2014-07-05T01:05:00Z,26.0630,-83.0730,1017.32,1111122 
COMPS,ioos:station:USF.COMPS:C13:1,2014-07-05T01:35:00Z,26.0630,-83.0730,1017.26,1111122 
COMPS,ioos:station:USF.COMPS:C13:1,2014-07-05T02:05:00Z,26.0630,-83.0730,1017.26,1111122 
COMPS,ioos:station:USF.COMPS:C13:1,2014-07-05T02:35:00Z,26.0630,-83.0730,1017.25,1111122 
COMPS,ioos:station:USF.COMPS:C13:1,2014-07-05T03:05:00Z,26.0630,-83.0730,1017.23,1111122 
COMPS,ioos:station:USF.COMPS:C13:1,2014-07-05T03:35:00Z,26.0630,-83.0730,1017.29,1111122 
COMPS,ioos:station:USF.COMPS:C13:1,2014-07-05T04:05:00Z,26.0630,-83.0730,1017.28,1111122 
COMPS,ioos:station:USF.COMPS:C13:1,2014-07-05T04:35:00Z,26.0630,-83.0730,1017.52,1111122 
COMPS,ioos:station:USF.COMPS:C13:1,2014-07-05T05:05:00Z,26.0630,-83.0730,1017.56,1111122 
COMPS,ioos:station:USF.COMPS:C13:1,2014-07-05T05:35:00Z,26.0630,-83.0730,1017.53,1111122 
COMPS,ioos:station:USF.COMPS:C13:1,2014-07-05T06:05:00Z,26.0630,-83.0730,1017.1,1111122 
COMPS,ioos:station:USF.COMPS:C13:1,2014-07-05T06:35:00Z,26.0630,-83.0730,1016.61,1111122 
COMPS,ioos:station:USF.COMPS:C13:1,2014-07-05T07:05:00Z,26.0630,-83.0730,1016.45,1111122 
COMPS,ioos:station:USF.COMPS:C13:1,2014-07-05T07:35:00Z,26.0630,-83.0730,1016.31,1111122 
COMPS,ioos:station:USF.COMPS:C13:1,2014-07-05T08:05:00Z,26.0630,-83.0730,1016.38,1111122 
COMPS,ioos:station:USF.COMPS:C13:1,2014-07-05T08:35:00Z,26.0630,-83.0730,1016.37,1111122 
COMPS,ioos:station:USF.COMPS:C13:1,2014-07-05T09:05:00Z,26.0630,-83.0730,1016.37,1111122 
COMPS,ioos:station:USF.COMPS:C13:1,2014-07-05T09:35:00Z,26.0630,-83.0730,1016.38,1111122 
COMPS,ioos:station:USF.COMPS:C13:1,2014-07-05T10:05:00Z,26.0630,-83.0730,1016.51,1111122 
COMPS,ioos:station:USF.COMPS:C13:1,2014-07-05T10:35:00Z,26.0630,-83.0730,1016.59,1111122 
COMPS,ioos:station:USF.COMPS:C13:1,2014-07-05T11:05:00Z,26.0630,-83.0730,1016.82,1111122 
COMPS,ioos:station:USF.COMPS:C13:1,2014-07-05T11:35:00Z,26.0630,-83.0730,1017.02,1111122 
COMPS,ioos:station:USF.COMPS:C13:1,2014-07-05T12:05:00Z,26.0630,-83.0730,1017.31,1111122 
COMPS,ioos:station:USF.COMPS:C13:1,2014-07-05T12:35:00Z,26.0630,-83.0730,1017.73,1111122 
COMPS,ioos:station:USF.COMPS:C13:1,2014-07-05T13:05:00Z,26.0630,-83.0730,1017.85,1111122 
COMPS,ioos:station:USF.COMPS:C13:1,2014-07-05T13:35:00Z,26.0630,-83.0730,1017.89,1111122 
COMPS,ioos:station:USF.COMPS:C13:1,2014-07-05T14:05:00Z,26.0630,-83.0730,1018.28,1111122 
COMPS,ioos:station:USF.COMPS:C13:1,2014-07-05T14:35:00Z,26.0630,-83.0730,1018.29,1111122 
COMPS,ioos:station:USF.COMPS:C13:1,2014-07-05T15:05:00Z,26.0630,-83.0730,1018.54,1111122 
COMPS,ioos:station:USF.COMPS:C13:1,2014-07-05T15:35:00Z,26.0630,-83.0730,1018.53,1111122 
COMPS,ioos:station:USF.COMPS:C13:1,2014-07-05T16:05:00Z,26.0630,-83.0730,1018.45,1111122 
COMPS,ioos:station:USF.COMPS:C13:1,2014-07-05T16:35:00Z,26.0630,-83.0730,1018.54,1111122 
COMPS,ioos:station:USF.COMPS:C13:1,2014-07-05T17:05:00Z,26.0630,-83.0730,1018.25,1111122 
COMPS,ioos:station:USF.COMPS:C13:1,2014-07-05T17:35:00Z,26.0630,-83.0730,1018.06,1111122 
COMPS,ioos:station:USF.COMPS:C13:1,2014-07-05T18:05:00Z,26.0630,-83.0730,1017.76,1111122 
COMPS,ioos:station:USF.COMPS:C13:1,2014-07-05T18:35:00Z,26.0630,-83.0730,1017.63,1111122 
COMPS,ioos:station:USF.COMPS:C13:1,2014-07-05T19:05:00Z,26.0630,-83.0730,1017.34,1111122 
COMPS,ioos:station:USF.COMPS:C13:1,2014-07-05T19:35:00Z,26.0630,-83.0730,1016.87,1111122 
COMPS,ioos:station:USF.COMPS:C13:1,2014-07-05T20:05:00Z,26.0630,-83.0730,1016.46,1111122 
COMPS,ioos:station:USF.COMPS:C13:1,2014-07-05T20:35:00Z,26.0630,-83.0730,1016.13,1111122 
COMPS,ioos:station:USF.COMPS:C13:1,2014-07-05T21:05:00Z,26.0630,-83.0730,1015.94,1111122 
COMPS,ioos:station:USF.COMPS:C13:1,2014-07-05T21:35:00Z,26.0630,-83.0730,1016.1,1111122 
COMPS,ioos:station:USF.COMPS:C13:1,2014-07-05T22:05:00Z,26.0630,-83.0730,1016.14,1111122 
COMPS,ioos:station:USF.COMPS:C13:1,2014-07-05T22:35:00Z,26.0630,-83.0730,1016.39,1111122 
COMPS,ioos:station:USF.COMPS:C13:1,2014-07-05T23:05:00Z,26.0630,-83.0730,1016.36,1111122 
COMPS,ioos:station:USF.COMPS:C13:1,2014-07-05T23:35:00Z,26.0630,-83.0730,1016.43,1111122 
COMPS,ioos:station:USF.COMPS:C13:1,2014-07-06T00:05:00Z,26.0630,-83.0730,1016.78,1111122 
COMPS,ioos:station:USF.COMPS:C13:1,2014-07-06T00:35:00Z,26.0630,-83.0730,1016.78,1111122 
COMPS,ioos:station:USF.COMPS:C13:1,2014-07-06T01:05:00Z,26.0630,-83.0730,1016.82,1111122 
COMPS,ioos:station:USF.COMPS:C13:1,2014-07-06T01:35:00Z,26.0630,-83.0730,1016.93,1111122 
COMPS,ioos:station:USF.COMPS:C13:1,2014-07-06T02:05:00Z,26.0630,-83.0730,1016.83,1111122 
COMPS,ioos:station:USF.COMPS:C13:1,2014-07-06T02:35:00Z,26.0630,-83.0730,1016.92,1111122 
COMPS,ioos:station:USF.COMPS:C13:1,2014-07-06T03:05:00Z,26.0630,-83.0730,1017.17,1111122 
COMPS,ioos:station:USF.COMPS:C13:1,2014-07-06T03:35:00Z,26.0630,-83.0730,1016.98,1111122 
COMPS,ioos:station:USF.COMPS:C13:1,2014-07-06T04:05:00Z,26.0630,-83.0730,1016.93,1111122 
COMPS,ioos:station:USF.COMPS:C13:1,2014-07-06T04:35:00Z,26.0630,-83.0730,1017.21,1111122 
COMPS,ioos:station:USF.COMPS:C13:1,2014-07-06T05:05:00Z,26.0630,-83.0730,1016.86,1111122 
COMPS,ioos:station:USF.COMPS:C13:1,2014-07-06T05:35:00Z,26.0630,-83.0730,1016.35,1111122 
COMPS,ioos:station:USF.COMPS:C13:1,2014-07-06T06:05:00Z,26.0630,-83.0730,1015.79,1111122 
COMPS,ioos:station:USF.COMPS:C13:1,2014-07-06T06:35:00Z,26.0630,-83.0730,1015.09,1111122 
COMPS,ioos:station:USF.COMPS:C13:1,2014-07-06T07:05:00Z,26.0630,-83.0730,1014.99,1111122 
COMPS,ioos:station:USF.COMPS:C13:1,2014-07-06T07:35:00Z,26.0630,-83.0730,1014.85,1111122 
COMPS,ioos:station:USF.COMPS:C13:1,2014-07-06T08:05:00Z,26.0630,-83.0730,1014.57,1111122 
COMPS,ioos:station:USF.COMPS:C13:1,2014-07-06T08:35:00Z,26.0630,-83.0730,1014.58,1111122 
COMPS,ioos:station:USF.COMPS:C13:1,2014-07-06T09:05:00Z,26.0630,-83.0730,1014.56,1111122 
COMPS,ioos:station:USF.COMPS:C13:1,2014-07-06T09:35:00Z,26.0630,-83.0730,1014.47,1111122 
COMPS,ioos:station:USF.COMPS:C13:1,2014-07-06T10:05:00Z,26.0630,-83.0730,1014.55,1111122 
COMPS,ioos:station:USF.COMPS:C13:1,2014-07-06T10:35:00Z,26.0630,-83.0730,1014.72,1111122 
COMPS,ioos:station:USF.COMPS:C13:1,2014-07-06T11:05:00Z,26.0630,-83.0730,1015.09,1111122 
COMPS,ioos:station:USF.COMPS:C13:1,2014-07-06T11:35:00Z,26.0630,-83.0730,1015.08,1111122 
COMPS,ioos:station:USF.COMPS:C13:1,2014-07-06T12:05:00Z,26.0630,-83.0730,1015.46,1111122 
COMPS,ioos:station:USF.COMPS:C13:1,2014-07-06T12:35:00Z,26.0630,-83.0730,1015.92,1111122 
COMPS,ioos:station:USF.COMPS:C13:1,2014-07-06T13:05:00Z,26.0630,-83.0730,1016.41,1111122 
COMPS,ioos:station:USF.COMPS:C13:1,2014-07-06T13:35:00Z,26.0630,-83.0730,1016.75,1111122 
COMPS,ioos:station:USF.COMPS:C13:1,2014-07-06T14:05:00Z,26.0630,-83.0730,1016.57,1111122 
COMPS,ioos:station:USF.COMPS:C13:1,2014-07-06T14:35:00Z,26.0630,-83.0730,1016.61,1111122 
COMPS,ioos:station:USF.COMPS:C13:1,2014-07-06T15:05:00Z,26.0630,-83.0730,1016.84,1111122 
COMPS,ioos:station:USF.COMPS:C13:1,2014-07-06T15:35:00Z,26.0630,-83.0730,1017.23,1111122 
COMPS,ioos:station:USF.COMPS:C13:1,2014-07-06T16:05:00Z,26.0630,-83.0730,1016.9,1111122 
COMPS,ioos:station:USF.COMPS:C13:1,2014-07-06T16:35:00Z,26.0630,-83.0730,1016.77,1111122 
COMPS,ioos:station:USF.COMPS:C13:1,2014-07-06T17:05:00Z,26.0630,-83.0730,1016.42,1111122 
COMPS,ioos:station:USF.COMPS:C13:1,2014-07-06T17:35:00Z,26.0630,-83.0730,1016.15,1111122 
COMPS,ioos:station:USF.COMPS:C13:1,2014-07-06T18:05:00Z,26.0630,-83.0730,1015.87,1111122 
COMPS,ioos:station:USF.COMPS:C13:1,2014-07-06T18:35:00Z,26.0630,-83.0730,1015.56,1111122 
COMPS,ioos:station:USF.COMPS:C13:1,2014-07-06T19:05:00Z,26.0630,-83.0730,1015.44,1111122 
COMPS,ioos:station:USF.COMPS:C13:1,2014-07-06T19:35:00Z,26.0630,-83.0730,1015.15,1111122 
COMPS,ioos:station:USF.COMPS:C13:1,2014-07-06T20:05:00Z,26.0630,-83.0730,1015.03,1111122 
COMPS,ioos:station:USF.COMPS:C13:1,2014-07-06T20:35:00Z,26.0630,-83.0730,1015.03,1111122 